Starlink 31931

operational
NORAD ID: 59864 Int'l Des: 2024-098 Owner: SPXS Country: US Constellation: starlink
LEOCIRCULAR

About Starlink 31931

Description loading...

Live Position

Loading 3D Globe...

Upcoming Passes

Altitude History

Altitude vs Time

uPlot chart will show altitude changes over time

Two-Line Element Set

1 59864U 24098G 26035.48177066 -.00001964 00000-0 -61879-4 0 9997
2 59864 42.9991 105.8641 0000882 277.5522 82.5230 15.27571657 96765
Epoch: Feb 4, 2026 • Age: 7 hours

Current Status

Altitude 488.2 km
Velocity 7.62 km/s
Sub-Earth Point -22.83°S, 105.71°W
Launch Date May 24, 2024
Age 1.7 years
Type internet

Technical Details

Classification Payload
Mass 730.00 kg
Dry Mass 700.00 kg
Total Mass 730.00 kg
Length 0.30 m
Diameter 4.10 m
Span 29.00 m
Shape Box + pan
Manufacturer SPXS
Bus Type Starlink V2M
Phase Status In Orbit
Owner/State SPXS/US

Large Constellations

Loading constellations...